, MO

(GMT )
Kansas City

Weather History for KMKC - December, 2012

Change the Weather History Date:

Friday, December 28, 2012

  Actual Average Record
Temperature  
Mean Temperature 28 °F -  
Max Temperature 32 °F 38 °F 57 °F (1999)
Min Temperature 23 °F 21 °F 10 °F (2000)
Degree Days  
Heating Degree Days 38    
Moisture  
Dew Point 21 °F    
Average Humidity 72    
Maximum Humidity 76    
Minimum Humidity 66    
Precipitation  
Precipitation 0.00 in - - ()
Sea Level Pressure  
Sea Level Pressure 30.01 in    
Wind  
Wind Speed 5 mph (NW)    
Max Wind Speed 13 mph    
Max Gust Speed 21 mph    
Visibility 7 miles    
Events Snow    
Averages and records for this station are not official NWS values.
T = Trace of Precipitation, MM = Missing Value Source: NWS Daily Summary

Daily Weather History Graph

Daily Weather History Graph

Search for Another Location

Airport or City:

Trip Planner

Search our weather history database for the weather conditions in past years. The results will help you decide how hot, cold, wet, or windy it might be!

Date:

Astronomy

Dec. 28, 2012 Rise Set
Actual Time 7:36 AM CST 5:03 PM CST
Civil Twilight 7:06 AM CST 5:33 PM CST
Nautical Twilight 6:33 AM CST 6:07 PM CST
Astronomical Twilight 6:00 AM CST 6:39 PM CST
Moon 5:40 PM CST (12/28) 7:32 AM CST (12/28)
Length of Visible Light 10h 26m
Length of Day
9h 26m
Full, 100% of the Moon is Illuminated
Dec 28
Full
Jan 4
Last Quarter
Jan 11
New
Jan 18
First Quarter
Jan 26
Full

Hourly Weather History & Observations

Time (CST) Temp. Windchill Dew Point Humidity Pressure Visibility Wind Dir Wind Speed Gust Speed Precip Events Conditions
12:54 AM 30.9 °F 26.2 °F 23.0 °F 72% 29.98 in 10.0 mi ENE 4.6 mph - N/A   Overcast
1:54 AM 30.9 °F 27.5 °F 24.1 °F 76% 29.96 in 10.0 mi East 3.5 mph - N/A   Overcast
2:54 AM 30.9 °F - 24.1 °F 76% 29.98 in 10.0 mi Calm Calm - N/A   Overcast
3:54 AM 32.0 °F - 24.1 °F 73% 29.97 in 10.0 mi Calm Calm - N/A   Overcast
4:54 AM 32.0 °F - 24.1 °F 73% 29.96 in 10.0 mi Calm Calm - N/A   Overcast
5:54 AM 32.0 °F - 24.1 °F 73% 29.97 in 10.0 mi Calm Calm - N/A   Overcast
6:54 AM 32.0 °F - 23.0 °F 69% 29.99 in 10.0 mi Calm Calm - N/A   Overcast
7:54 AM 32.0 °F 24.2 °F 24.1 °F 73% 29.99 in 10.0 mi WNW 9.2 mph - N/A   Overcast
8:54 AM 30.9 °F 26.2 °F 24.1 °F 76% 29.99 in 8.0 mi NW 4.6 mph - N/A   Overcast
9:54 AM 30.9 °F 23.5 °F 23.0 °F 72% 30.01 in 7.0 mi NW 8.1 mph - N/A   Overcast
10:08 AM 30.2 °F 22.6 °F 23.0 °F 75% 29.99 in 6.0 mi NW 8.1 mph - N/A   Haze
10:54 AM 30.9 °F 22.8 °F 23.0 °F 72% 30.01 in 6.0 mi NNW 9.2 mph - N/A   Haze
11:54 AM 30.9 °F 24.3 °F 23.0 °F 72% 30.00 in 6.0 mi WNW 6.9 mph - N/A   Haze
12:54 PM 30.9 °F 23.5 °F 23.0 °F 72% 29.99 in 5.0 mi West 8.1 mph - N/A   Haze
1:14 PM 30.2 °F 21.9 °F 23.0 °F 75% 29.97 in 5.0 mi West 9.2 mph - N/A   Haze
1:54 PM 30.0 °F 22.4 °F 23.0 °F 75% 29.98 in 5.0 mi NW 8.1 mph - N/A   Haze
2:54 PM 30.0 °F 23.2 °F 21.9 °F 72% 29.98 in 5.0 mi WNW 6.9 mph - N/A   Haze
3:54 PM 30.0 °F 22.4 °F 19.9 °F 66% 29.99 in 6.0 mi NW 8.1 mph - N/A   Haze
4:01 PM 28.4 °F 19.7 °F 21.2 °F 74% 29.98 in 5.0 mi NW 9.2 mph - N/A   Haze
4:54 PM 28.9 °F 23.9 °F 19.9 °F 69% 30.00 in 5.0 mi WNW 4.6 mph - N/A   Haze
5:27 PM 28.4 °F 24.6 °F 19.4 °F 69% 30.00 in 9.0 mi NW 3.5 mph - N/A   Overcast
5:54 PM 28.4 °F 18.5 °F 19.4 °F 69% 30.00 in 5.0 mi NW 11.5 mph - N/A Snow Light Snow
6:50 PM 28.4 °F 20.4 °F 19.4 °F 69% 30.02 in 5.0 mi NW 8.1 mph - 0.00 in   Haze
6:54 PM 28.0 °F 19.3 °F 19.9 °F 72% 30.04 in 5.0 mi NW 9.2 mph - 0.00 in   Haze
7:54 PM 26.1 °F 16.8 °F 19.0 °F 75% 30.05 in 5.0 mi NW 9.2 mph - 0.00 in   Haze
8:27 PM 26.6 °F 15.7 °F 17.6 °F 69% 30.03 in 6.0 mi NW 12.7 mph - N/A   Haze
8:54 PM 25.0 °F 14.8 °F 15.1 °F 66% 30.06 in 7.0 mi NW 10.4 mph 20.7 mph N/A   Clear
9:54 PM 23.0 °F 11.7 °F 15.1 °F 72% 30.08 in 6.0 mi NW 11.5 mph 16.1 mph N/A   Haze
10:18 PM 24.8 °F 16.1 °F 15.8 °F 69% 30.05 in 6.0 mi NW 8.1 mph - N/A   Haze
10:54 PM 24.1 °F 15.2 °F 15.1 °F 69% 30.09 in 7.0 mi NW 8.1 mph - N/A   Overcast
11:54 PM 24.1 °F 15.2 °F 16.0 °F 71% 30.10 in 6.0 mi NW 8.1 mph - N/A   Haze